User: anonymous   Login
Location: Unspecified
(0.0000°N, 0.0000°E)
Time: 09:14:48
(UTC+00:00)
Language:

DNEPR OBJECT U - Orbit

View from above orbital plane
View from above orbital plane
View from above satellite
View from above satellite

Ground track
Ground track

The orbit data is extracted from the following two-line orbital elements,

1 39434U 13066U   17086.74913502 +.00002982 +00000-0 +23033-3 0  9997
2 39434 097.6591 163.6976 0033324 079.3956 281.1005 15.01866237182607
Epoch (UTC): 27 March 2017 17:58:45
Eccentricity: 0.0033324
inclination: 97.6591°
perigee height: 538 km
apogee height: 584 km
right ascension of ascending node: 163.6976°
argument of perigee: 79.3956°
revolutions per day: 15.01866237
mean anomaly at epoch: 281.1005°
orbit number at epoch: 18260

The dashed part of the orbit path shows where the satellite is in the earth's shadow,  

DLR